Hourly Weather Kislye

Today, 27 July, Tuesday

Time Temperature Precipitation Wind Pressure Humidity
00:00 +21°C° 0 mm 1 mps 750 mmHg 70%
01:00 +20°C° 0 mm 1 mps 750 mmHg 72%
02:00 +20°C° 0 mm 1 mps 750 mmHg 73%
03:00 +20°C° 0 mm 1 mps 750 mmHg 75%
04:00 +19°C° 0 mm 2 mps 750 mmHg 78%
05:00 +18°C° 0 mm 2 mps 750 mmHg 80%
06:00 +20°C° 0 mm 2 mps 750 mmHg 72%
07:00 +23°C° 0 mm 2 mps 750 mmHg 64%
08:00 +26°C° 0 mm 2 mps 750 mmHg 56%
09:00 +27°C° 0 mm 3 mps 750 mmHg 50%
10:00 +29°C° 0 mm 3 mps 749 mmHg 45%
11:00 +30°C° 0 mm 3 mps 749 mmHg 39%
12:00 +30°C° 0 mm 3 mps 749 mmHg 38%
13:00 +30°C° 0 mm 3 mps 749 mmHg 37%
14:00 +30°C° 0 mm 3 mps 748 mmHg 36%
15:00 +30°C° 0 mm 3 mps 748 mmHg 38%
16:00 +29°C° 0 mm 2 mps 748 mmHg 40%
17:00 +28°C° 0 mm 2 mps 747 mmHg 42%
18:00 +27°C° 0 mm 2 mps 747 mmHg 46%
19:00 +26°C° 0 mm 2 mps 747 mmHg 49%
20:00 +24°C° 0 mm 2 mps 746 mmHg 53%
21:00 +23°C° 0 mm 2 mps 746 mmHg 57%
22:00 +23°C° 0 mm 2 mps 746 mmHg 61%
23:00 +21°C° 0 mm 3 mps 746 mmHg 65%

Tomorrow, 28 July, Wednesday

Time Temperature Precipitation Wind Pressure Humidity
00:00 +20°C° 0 mm 3 mps 746 mmHg 70%
01:00 +19°C° 0 mm 2 mps 745 mmHg 75%
02:00 +18°C° 0 mm 2 mps 745 mmHg 79%
03:00 +18°C° 0 mm 2 mps 745 mmHg 83%
04:00 +18°C° 0 mm 2 mps 745 mmHg 86%
05:00 +18°C° 0 mm 2 mps 744 mmHg 90%
06:00 +19°C° 0 mm 3 mps 744 mmHg 88%
07:00 +20°C° 0 mm 3 mps 744 mmHg 86%
08:00 +21°C° 0 mm 3 mps 744 mmHg 84%
09:00 +21°C° 0.4 mm 3 mps 744 mmHg 87%
10:00 +21°C° 0.4 mm 3 mps 744 mmHg 91%
11:00 +20°C° 0.4 mm 2 mps 743 mmHg 95%
12:00 +20°C° 0.8 mm 2 mps 743 mmHg 94%
13:00 +21°C° 0.8 mm 2 mps 743 mmHg 94%
14:00 +22°C° 0.8 mm 1 mps 743 mmHg 93%
15:00 +23°C° 0.3 mm 2 mps 742 mmHg 90%
16:00 +23°C° 0.3 mm 2 mps 742 mmHg 87%
17:00 +24°C° 0.3 mm 3 mps 742 mmHg 84%
18:00 +23°C° 0 mm 2 mps 742 mmHg 86%
19:00 +21°C° 0 mm 2 mps 742 mmHg 89%
20:00 +21°C° 0 mm 1 mps 741 mmHg 92%
21:00 +21°C° 0 mm 1 mps 742 mmHg 93%
22:00 +20°C° 0 mm 1 mps 742 mmHg 93%
23:00 +20°C° 0 mm 1 mps 742 mmHg 93%

Day after tomorrow, 29 July, Thursday

Time Temperature Precipitation Wind Pressure Humidity
00:00 +19°C° 0 mm 2 mps 742 mmHg 94%
01:00 +18°C° 0 mm 2 mps 742 mmHg 94%
02:00 +18°C° 0 mm 2 mps 742 mmHg 94%
03:00 +18°C° 0 mm 2 mps 742 mmHg 94%
04:00 +18°C° 0 mm 2 mps 742 mmHg 94%
05:00 +18°C° 0 mm 2 mps 742 mmHg 93%
06:00 +20°C° 0 mm 2 mps 741 mmHg 85%
07:00 +23°C° 0 mm 2 mps 741 mmHg 76%
08:00 +25°C° 0 mm 2 mps 741 mmHg 68%
09:00 +26°C° 0 mm 3 mps 741 mmHg 62%
10:00 +27°C° 0 mm 3 mps 741 mmHg 57%
11:00 +28°C° 0 mm 3 mps 741 mmHg 52%
12:00 +27°C° 0.1 mm 3 mps 741 mmHg 53%
13:00 +27°C° 0.1 mm 3 mps 741 mmHg 55%
14:00 +27°C° 0.1 mm 3 mps 741 mmHg 56%
15:00 +27°C° 0.1 mm 3 mps 741 mmHg 58%
16:00 +26°C° 0.1 mm 3 mps 741 mmHg 60%
17:00 +26°C° 0.1 mm 2 mps 741 mmHg 62%
18:00 +24°C° 0 mm 2 mps 741 mmHg 69%
19:00 +21°C° 0 mm 2 mps 741 mmHg 76%
20:00 +20°C° 0 mm 2 mps 741 mmHg 83%
21:00 +19°C° 0 mm 2 mps 741 mmHg 84%
22:00 +18°C° 0 mm 2 mps 741 mmHg 86%
23:00 +18°C° 0 mm 2 mps 741 mmHg 88%

30 July, Friday

Time Temperature Precipitation Wind Pressure Humidity
00:00 +17°C° 0 mm 2 mps 741 mmHg 90%
01:00 +17°C° 0 mm 2 mps 741 mmHg 92%
02:00 +17°C° 0 mm 2 mps 741 mmHg 95%
03:00 +17°C° 0 mm 2 mps 741 mmHg 94%
04:00 +17°C° 0 mm 2 mps 741 mmHg 94%
05:00 +17°C° 0 mm 2 mps 741 mmHg 94%
06:00 +18°C° 0 mm 2 mps 741 mmHg 86%
07:00 +20°C° 0 mm 2 mps 741 mmHg 77%
08:00 +22°C° 0 mm 3 mps 741 mmHg 69%
09:00 +24°C° 0 mm 3 mps 741 mmHg 59%
10:00 +26°C° 0 mm 4 mps 741 mmHg 49%
11:00 +28°C° 0 mm 5 mps 741 mmHg 40%
12:00 +28°C° 0 mm 6 mps 741 mmHg 37%
13:00 +29°C° 0 mm 6 mps 741 mmHg 34%
14:00 +29°C° 0 mm 7 mps 740 mmHg 31%
15:00 +28°C° 0 mm 7 mps 740 mmHg 35%
16:00 +28°C° 0 mm 6 mps 740 mmHg 39%
17:00 +27°C° 0 mm 6 mps 740 mmHg 44%
18:00 +25°C° 0 mm 5 mps 740 mmHg 49%
19:00 +24°C° 0 mm 3 mps 740 mmHg 54%
20:00 +23°C° 0 mm 2 mps 740 mmHg 59%
21:00 +20°C° 0 mm 2 mps 740 mmHg 64%
22:00 +19°C° 0 mm 2 mps 740 mmHg 70%
23:00 +18°C° 0 mm 2 mps 740 mmHg 76%

31 July, Saturday

Time Temperature Precipitation Wind Pressure Humidity
00:00 +18°C° 0.1 mm 2 mps 740 mmHg 79%
01:00 +18°C° 0.1 mm 2 mps 740 mmHg 83%
02:00 +17°C° 0.1 mm 2 mps 740 mmHg 86%
03:00 +17°C° 0 mm 2 mps 740 mmHg 87%
04:00 +17°C° 0 mm 2 mps 739 mmHg 89%
05:00 +17°C° 0 mm 2 mps 739 mmHg 90%
06:00 +19°C° 0 mm 2 mps 739 mmHg 82%
07:00 +21°C° 0 mm 3 mps 740 mmHg 73%
08:00 +22°C° 0 mm 3 mps 740 mmHg 65%
09:00 +25°C° 0 mm 3 mps 740 mmHg 57%
10:00 +26°C° 0 mm 4 mps 740 mmHg 49%
11:00 +27°C° 0 mm 4 mps 740 mmHg 40%
12:00 +28°C° 0 mm 4 mps 740 mmHg 39%
13:00 +28°C° 0 mm 4 mps 740 mmHg 38%
14:00 +29°C° 0 mm 5 mps 739 mmHg 36%
15:00 +28°C° 0 mm 4 mps 739 mmHg 38%
16:00 +28°C° 0 mm 4 mps 739 mmHg 40%
17:00 +28°C° 0 mm 3 mps 739 mmHg 42%
18:00 +26°C° 0 mm 2 mps 739 mmHg 49%
19:00 +24°C° 0 mm 2 mps 739 mmHg 56%
20:00 +22°C° 0 mm 1 mps 739 mmHg 62%
21:00 +21°C° 0 mm 1 mps 739 mmHg 63%
22:00 +21°C° 0 mm 1 mps 739 mmHg 65%
23:00 +19°C° 0 mm 0 mps 739 mmHg 66%

1 August, Sunday

Time Temperature Precipitation Wind Pressure Humidity
00:00 +20°C° 0 mm 1 mps 738 mmHg 73%
01:00 +19°C° 0 mm 1 mps 738 mmHg 79%
02:00 +19°C° 0 mm 1 mps 738 mmHg 85%
03:00 +19°C° 0.1 mm 1 mps 738 mmHg 87%
04:00 +17°C° 0.1 mm 2 mps 738 mmHg 89%
05:00 +17°C° 0.1 mm 2 mps 738 mmHg 91%
06:00 +19°C° 0 mm 2 mps 738 mmHg 81%
07:00 +21°C° 0 mm 3 mps 738 mmHg 71%
08:00 +24°C° 0 mm 3 mps 738 mmHg 60%
09:00 +25°C° 0 mm 4 mps 738 mmHg 56%
10:00 +26°C° 0 mm 4 mps 738 mmHg 52%
11:00 +28°C° 0 mm 5 mps 738 mmHg 48%
12:00 +28°C° 0 mm 5 mps 739 mmHg 43%
13:00 +29°C° 0 mm 5 mps 739 mmHg 39%
14:00 +29°C° 0 mm 6 mps 739 mmHg 35%
15:00 +29°C° 0 mm 5 mps 739 mmHg 36%
16:00 +28°C° 0 mm 5 mps 739 mmHg 36%
17:00 +27°C° 0 mm 5 mps 739 mmHg 37%
18:00 +25°C° 0 mm 4 mps 740 mmHg 43%
19:00 +22°C° 0 mm 3 mps 740 mmHg 50%
20:00 +20°C° 0 mm 3 mps 740 mmHg 56%
21:00 +19°C° 0 mm 2 mps 740 mmHg 62%
22:00 +18°C° 0 mm 2 mps 740 mmHg 67%
23:00 +17°C° 0 mm 2 mps 741 mmHg 72%
Show more